This is the latest recevied weather packets stored in our database for station/object WD8INF-9. If no packets are shown the sender has not sent any weather packets the latest 10 day(s).
| Time | Temp. | Humidity | Pressure | Rain* | Wind** | Luminosity | Snow |
|---|---|---|---|---|---|---|---|
| 1778085650 | 16.11° C | - | 1011.7 hPa | 0 mm | - | - | - |
| 1778085350 | 17.22° C | - | 1011.7 hPa | 0 mm | - | - | - |
| 1778085050 | 15.56° C | - | 1011.8 hPa | 0 mm | - | - | - |
| 1778084750 | 16.67° C | - | 1011.6 hPa | 0 mm | - | - | - |
| 1778084450 | 16.67° C | - | 1011.6 hPa | 0 mm | - | - | - |
| 1778084150 | 18.33° C | - | 1011.6 hPa | 0 mm | - | - | - |
| 1778083848 | 15.56° C | - | 1011.6 hPa | 0 mm | - | - | - |
| 1778083548 | 17.78° C | - | 1011.5 hPa | 0 mm | - | - | - |
| 1778083248 | 16.67° C | - | 1011.5 hPa | 0 mm | - | - | - |
| 1778082948 | 16.67° C | - | 1011.5 hPa | 0 mm | - | - | - |
| 1778082647 | 16.11° C | - | 1011.9 hPa | 0 mm | - | - | - |
| 1778082346 | 17.22° C | - | 1012 hPa | 0 mm | - | - | - |
| 1778082046 | 16.67° C | - | 1011.9 hPa | 0 mm | - | - | - |
| 1778081746 | 16.67° C | - | 1011.7 hPa | 0 mm | - | - | - |
| 1778081446 | 16.11° C | - | 1011.9 hPa | 0 mm | - | - | - |
| 1778081145 | 15.56° C | - | 1011.7 hPa | 0 mm | - | - | - |
| 1778080845 | 16.67° C | - | 1011.2 hPa | 0 mm | - | - | - |
| 1778080545 | 16.11° C | - | 1011.4 hPa | 0 mm | - | - | - |
| 1778080245 | 15.56° C | - | 1011 hPa | 0 mm | - | - | - |
| 1778079944 | 15.56° C | - | 1010.9 hPa | 0 mm | - | - | - |
| 1778079644 | 15° C | - | 1010.7 hPa | 0 mm | - | - | - |
| 1778079344 | 15° C | - | 1010.7 hPa | 0 mm | - | - | - |
| 1778079044 | 15° C | - | 1010.8 hPa | 0 mm | - | - | - |
| 1778078744 | 15° C | - | 1010.7 hPa | 0 mm | - | - | - |
| 1778078443 | 15.56° C | - | 1010.6 hPa | 0 mm | - | - | - |
* Rain since midnight (hover to see other rain measurements)
** Current wind speed in m/s (hover to see current wind gust speed)